Weather History for Bangor, ME

Change the Weather History Date:

Friday, September 7, 2012

  Actual Average Record
Temperature  
Mean Temperature 69 °F 62 °F  
Max Temperature 80 °F 73 °F 99 °F (1945)
Min Temperature 57 °F 51 °F 33 °F (1942)
Degree Days  
Heating Degree Days 0 4  
Month to date heating degree days 20 25  
Since 1 July heating degree days 22 88  
Cooling Degree Days 4 1  
Month to date cooling degree days 6 11  
Year to date cooling degree days 390 305  
Growing Degree Days 18 (Base 50)    
Moisture  
Dew Point 61 °F    
Average Humidity 71    
Maximum Humidity 100    
Minimum Humidity 42    
Precipitation  
Precipitation 0.00 in 0.10 in 1.46 in (1953)
Month to date precipitation 3.58 0.72  
Year to date precipitation 27.87 26.97  
Snow  
Snow 0.00 in 0.00 in 0.00 in (2002)
Month to date snowfall 0.0 0.0  
Since 1 July snowfall 0.0 0.0  
Since 1 September snowfall 0.0 0.0  
Snow Depth 0.00 in    
Sea Level Pressure  
Sea Level Pressure 29.88 in    
Wind  
Wind Speed 3 mph (SSW)    
Max Wind Speed 12 mph    
Max Gust Speed 18 mph    
Visibility 7 miles    
Events Fog    
T = Trace of Precipitation, MM = Missing Value Source: NWS Daily Summary

Daily Weather History Graph

Daily Weather History Graph

Search for Another Location

Airport:

Trip Planner

Search our weather history database for the weather conditions in past years. The results will help you decide how hot, cold, wet, or windy it might be!

Date:

Astronomy

Sep. 07, 2012 Rise Set
Actual Time 6:05 AM EDT 7:00 PM EDT
Civil Twilight 5:35 AM EDT 7:29 PM EDT
Nautical Twilight 4:59 AM EDT 8:05 PM EDT
Astronomical Twilight 4:22 AM EDT 8:42 PM EDT
Moon 10:34 PM EDT (9/7) 1:12 PM EDT (9/7)
Length of Visible Light 13h 54m
Length of Day
12h 55m
Waning Gibbous, 58% of the Moon is Illuminated
Sep 7
Waning Gibbous
Sep 8
Last Quarter
Sep 15
New
Sep 22
First Quarter
Sep 29
Full

Hourly Weather History & Observations

Time (EDT) Temp. Heat Index Dew Point Humidity Pressure Visibility Wind Dir Wind Speed Gust Speed Precip Events Conditions
12:40 AM 57.2 °F - 57.2 °F 100% 29.87 in 10.0 mi Calm Calm - N/A   Mostly Cloudy
12:53 AM 57.9 °F - 57.0 °F 97% 29.87 in 10.0 mi Calm Calm - N/A   Mostly Cloudy
1:53 AM 59.0 °F - 59.0 °F 100% 29.85 in 10.0 mi South 4.6 mph - N/A   Overcast
2:32 AM 59.0 °F - 59.0 °F 100% 29.86 in 9.0 mi South 4.6 mph - N/A   Overcast
2:53 AM 60.1 °F - 59.0 °F 96% 29.85 in 9.0 mi South 5.8 mph - N/A   Overcast
3:53 AM 60.1 °F - 60.1 °F 100% 29.85 in 0.2 mi SSW 4.6 mph - N/A   Overcast
4:53 AM 60.1 °F - 60.1 °F 100% 29.85 in 0.2 mi Calm Calm - N/A Fog Fog
5:53 AM 61.0 °F - 61.0 °F 100% 29.87 in 0.2 mi Calm Calm - N/A Fog Fog
6:53 AM 61.0 °F - 61.0 °F 100% 29.88 in 0.2 mi South 4.6 mph - N/A   Overcast
7:53 AM 62.1 °F - 62.1 °F 100% 29.89 in 0.2 mi South 3.5 mph - N/A   Overcast
8:53 AM 63.0 °F - 62.1 °F 97% 29.90 in 1.5 mi Calm Calm - N/A   Overcast
9:26 AM 62.6 °F - 62.6 °F 100% 29.91 in 2.0 mi Calm Calm - N/A   Overcast
9:53 AM 63.0 °F - 63.0 °F 100% 29.91 in 2.0 mi Calm Calm - N/A   Overcast
10:22 AM 64.4 °F - 62.6 °F 94% 29.91 in 2.0 mi Calm Calm - N/A   Overcast
10:29 AM 66.2 °F - 62.6 °F 88% 29.91 in 4.0 mi Calm Calm - N/A   Overcast
10:53 AM 66.0 °F - 64.0 °F 93% 29.90 in 10.0 mi SSW 3.5 mph - N/A   Overcast
11:38 AM 69.8 °F - 64.4 °F 83% 29.90 in 10.0 mi Variable 3.5 mph - N/A   Mostly Cloudy
11:53 AM 70.0 °F - 64.0 °F 81% 29.89 in 10.0 mi Calm Calm - N/A   Scattered Clouds
12:53 PM 73.9 °F - 63.0 °F 68% 29.88 in 10.0 mi East 4.6 mph - N/A   Partly Cloudy
1:53 PM 78.1 °F - 62.1 °F 58% 29.88 in 10.0 mi Variable 3.5 mph - N/A   Partly Cloudy
2:53 PM 80.1 °F 80.2 °F 55.9 °F 43% 29.86 in 10.0 mi WSW 8.1 mph - N/A   Scattered Clouds
3:53 PM 79.0 °F - 57.9 °F 48% 29.86 in 10.0 mi West 6.9 mph - N/A   Scattered Clouds
4:53 PM 80.1 °F 80.9 °F 60.1 °F 50% 29.86 in 10.0 mi SW 6.9 mph - N/A   Scattered Clouds
5:53 PM 78.1 °F - 62.1 °F 58% 29.87 in 10.0 mi SW 3.5 mph - N/A   Scattered Clouds
6:53 PM 71.1 °F - 66.0 °F 84% 29.87 in 10.0 mi SSE 5.8 mph - N/A   Scattered Clouds
7:53 PM 68.0 °F - 64.0 °F 87% 29.90 in 10.0 mi South 3.5 mph - N/A   Scattered Clouds
8:53 PM 66.9 °F - 64.0 °F 90% 29.90 in 10.0 mi SSW 3.5 mph - N/A   Partly Cloudy
9:53 PM 64.9 °F - 64.0 °F 97% 29.91 in 10.0 mi SSW 5.8 mph - N/A   Scattered Clouds
10:53 PM 64.9 °F - 63.0 °F 93% 29.91 in 10.0 mi South 3.5 mph - N/A   Partly Cloudy
11:53 PM 64.0 °F - 62.1 °F 93% 29.90 in 10.0 mi South 3.5 mph - N/A   Partly Cloudy